Location: Fort Wayne
(41.1310°N, 85.1290°W)
Time: 19:11:43
(UTC-05:00)

Daily predictions for brighter satellites

Satellite Brightness Start Highest point End
(mag) Time Altitude Azimuth Time Altitude Azimuth Time Altitude Azimuth
YAOGAN 1 3.6 17:42:18 10° ESE 17:45:50 25° ENE 17:49:22 10° NNE
COSMOS 2455 3.3 17:44:30 10° S 17:50:09 45° ESE 17:55:50 10° NE
DNEPR-1 R/B 4.1 17:45:58 10° SW 17:50:20 56° NW 17:54:30 10° NNE
Cosmos 1570 Rocket 4.1 17:45:07 10° NNW 17:50:31 87° ENE 17:55:51 10° SSE
SMAP 3.2 17:46:44 10° SSE 17:51:15 54° ENE 17:55:48 10° N
NOSS 3-2 (C) 4.4 17:46:46 10° WSW 17:52:30 46° NW 17:58:52 10° NNE
Cosmos 1340 2.7 17:49:05 10° S 17:52:47 60° E 17:56:31 10° NNE
Cosmos 1825 4.3 17:51:14 10° NNW 17:54:38 32° W 17:58:01 10° SSW
Cosmos 1707 Rocket 4.4 17:51:48 10° SSW 17:56:10 55° W 18:00:33 10° N
USA 116 4.5 17:52:40 10° NNE 17:57:00 39° E 18:00:50 10° SSE
Meteor 2-10 Rocket 3.7 17:52:41 10° SSW 17:57:51 82° W 18:03:15 10° N
COSMOS 2406 3.2 17:54:47 10° NNW 18:00:33 74° ENE 18:06:14 10° SSE
CZ-4 R/B 1.3 18:02:29 10° SSE 18:06:18 55° ENE 18:10:04 10° N
Cosmos 1844 Rocket 2.9 18:02:00 10° SSW 18:07:39 79° WNW 18:13:19 10° NNE
ERS-2 2.8 18:06:00 10° SE 18:09:18 32° ENE 18:12:37 10° N
Lacrosse 5 3.4 18:05:43 10° W 18:10:01 27° NNW 18:14:20 10° NNE
BREEZE-M DEB (TANK) 3.5 18:12:21 10° NW 18:13:55 16° NNE 18:15:18 13° NE
Cosmos 1933 3.8 18:12:22 10° SSW 18:16:22 63° W 18:20:24 10° N
Meteor 1-26 Rocket 4.2 18:11:20 10° S 18:16:51 64° E 18:22:20 10° NNE
AQUARIUS 4.3 18:13:02 10° S 18:17:31 82° WSW 18:22:02 10° NNW
Cosmos 2233 Rocket 4.0 18:18:20 10° S 18:24:34 71° E 18:30:46 10° NNE
Cosmos 468 Rocket 4.0 18:20:28 10° NNW 18:25:40 84° WSW 18:30:48 10° SSE
CZ-4C R/B 4.1 18:21:20 10° NNW 18:26:13 20° NNE 18:29:07 16° ENE
CENTAUR R/B 2.9 18:20:15 10° SW 18:26:13 65° NW 18:33:06 10° NNE
Cosmos 2242 Rocket 4.3 18:24:23 10° SSW 18:28:53 59° W 18:33:23 10° N
Cosmos 1844 4.1 18:24:37 10° SSW 18:30:21 69° WNW 18:36:10 10° NNE
SKYMED 2 3.7 18:27:16 10° NNE 18:31:31 51° E 18:35:44 10° S
ERBS 2.4 18:28:43 10° NW 18:32:04 51° NE 18:33:53 23° ESE
Cosmos 1908 Rocket 3.6 18:28:30 10° N 18:32:46 52° E 18:36:58 10° SSE
FENGYUN 3A 4.0 18:27:54 10° SE 18:32:55 40° ENE 18:37:56 10° N
Cosmos 1437 3.2 18:29:50 10° SSW 18:32:58 60° W 18:36:07 10° N
Cosmos 1833 Rocket 3.5 18:30:12 10° N 18:35:00 28° NE 18:37:29 20° E
Cosmos 972 Rocket 4.2 18:30:26 10° NNW 18:35:21 70° WSW 18:40:13 10° S
Sich 1 Rocket 3.8 18:31:08 10° N 18:35:24 46° ENE 18:39:40 10° SSE
Cosmos 2278 Rocket 2.2 18:31:14 10° S 18:36:50 67° ESE 18:42:21 11° NNE
Cosmos 1733 Rocket 3.8 18:32:41 10° NNW 18:37:02 56° W 18:41:22 10° S
MONITOR-E 4.1 18:38:49 10° SSE 18:41:49 58° ENE 18:44:49 10° N
Cosmos 1862 Rocket 4.5 18:41:22 10° SSW 18:45:39 50° W 18:50:00 10° N
Cosmos 304 Rocket 3.7 18:41:48 10° NNW 18:46:38 83° ENE 18:51:25 10° SSE
Cosmos 1763 Rocket 3.4 18:43:56 10° NNW 18:49:11 89° WSW 18:54:20 10° SSE
Cosmos 972 4.3 18:48:47 10° NNW 18:53:54 87° ENE 18:58:45 10° SSE
Cosmos 1814 Rocket 4.3 18:49:56 10° NNW 18:55:17 72° WSW 19:00:36 10° S
Cosmos 1782 2.7 18:51:56 10° S 18:55:54 63° E 18:58:02 26° NNE
EO 1 Del DPAF 3.2 18:52:46 10° N 18:56:31 80° WNW 19:00:20 10° SSW
Cosmos 1606 2.5 18:52:58 10° S 18:56:43 66° E 18:58:16 33° NNE
Cosmos 1633 2.5 18:53:59 10° N 18:57:38 60° E 19:01:15 10° SSE
Meteor 2-6 Rocket 4.3 18:53:34 10° SSE 18:58:45 49° E 19:02:59 16° NNE
SL-27 R/B 3.5 18:55:59 10° N 18:57:53 29° N 18:57:53 29° N
Cosmos 1503 Rocket 4.2 18:54:23 10° S 18:59:25 46° ESE 19:01:06 34° ENE
Meteor 1-25 Rocket 4.4 18:55:24 10° NNW 19:01:16 81° W 19:07:04 10° S
BREEZE-M DEB (TANK) 3.8 18:59:28 10° NW 19:00:27 21° NNW 19:00:27 21° NNW
Meteor 1-20 Rocket 4.3 19:02:53 10° NNW 19:08:28 76° W 19:13:56 10° S
BREEZE-M R/B 2.6 19:06:10 10° NW 19:09:05 74° NNE 19:09:25 67° ENE
BREEZE-M DEB (TANK) 4.3 19:03:51 10° WNW 19:10:26 35° SW 19:12:53 15° SSE
DMSP B5D1-3 4.4 19:05:26 10° NNE 19:10:36 78° ESE 19:15:45 10° S
Okean 1-7 2.9 19:08:28 10° S 19:12:50 82° E 19:14:49 32° NNE
FengYun 1-2 T 4.3 19:11:30 22° SE 19:14:55 52° ENE 19:20:18 10° N
Cosmos 1072 Rocket 4.4 19:08:45 10° S 19:14:55 83° E 19:21:15 10° N
Cosmos 836 Rocket 4.4 19:10:36 10° NNW 19:15:47 59° ENE 19:17:05 46° ESE
Cosmos 2082 Rocket 2.2 19:11:12 10° NNW 19:16:50 57° ENE 19:18:10 46° ESE
Cosmos 1782 Rocket 3.4 19:12:32 10° N 19:16:54 87° W 19:21:14 10° S
ALOS 2.4 19:12:43 10° S 19:17:23 76° WSW 19:22:05 10° NNW
COSMO-SKYMED 1 3.6 19:15:25 10° N 19:19:34 46° WNW 19:23:42 10° SW
Meteor 1-27 Rocket 3.9 19:14:07 10° SSE 19:19:43 49° E 19:20:06 48° E
Cosmos 2034 Rocket 4.0 19:14:50 10° S 19:21:05 63° E 19:27:22 10° NNE
Cosmos 841 Rocket 4.0 19:16:43 10° NNW 19:21:55 61° WSW 19:27:05 10° S
Nadezhda 4 Rocket 4.2 19:18:25 10° N 19:23:29 45° NE 19:23:29 45° NE
Cosmos 540 Rocket 3.3 19:19:18 10° NNW 19:24:29 73° ENE 19:25:38 53° SE
USA 234 3.4 19:21:06 29° NE 19:24:39 67° NW 19:31:06 10° WSW
SPOT 3 Rocket 4.1 19:20:35 10° S 19:25:42 57° WSW 19:30:52 10° NNW
Meteor 1-10 Rocket 4.2 19:20:15 10° S 19:25:53 88° W 19:31:41 10° N
Cosmos 2221 Rocket 3.6 19:21:45 10° S 19:26:09 79° W 19:27:25 46° N
BREEZE-M DEB (TANK) 4.1 19:24:31 10° WSW 19:25:33 26° W 19:25:33 26° W
Atlas 2A Centaur Rocket 4.4 19:20:48 10° WSW 19:31:31 24° SSW 19:33:58 18° SSE
Cosmos 1354 Rocket 4.0 19:30:46 10° SSW 19:36:03 83° WNW 19:37:11 56° N
COSMOS 2455 4.3 19:30:53 10° WSW 19:36:13 32° NW 19:40:41 14° N
Okean 2 Rocket 4.3 19:45:40 10° NNW 19:48:29 36° NNW 19:48:29 36° NNW
Lacrosse 5 4.2 19:52:07 10° NW 19:54:20 13° N 19:54:20 13° N
Meteor 1-11 Rocket 3.8 19:50:08 10° N 19:55:24 72° NNW 19:55:24 72° NNW
Thor Agena Rocket 4.1 20:02:17 52° SW 20:02:17 52° SW 20:06:18 10° SSW
Cosmos 2297 4.4 20:07:10 10° SW 20:12:42 50° WNW 20:12:54 50° NW
CZ-4C R/B 3.3 20:08:58 10° NNW 20:14:20 51° N 20:14:20 51° N
Cosmos 1833 Rocket 3.6 20:13:47 10° NW 20:19:04 43° WSW 20:19:18 43° WSW
Cosmos 2278 Rocket 4.4 20:17:20 10° W 20:21:26 20° NW 20:24:14 15° NNW
Cosmos 2082 Rocket 4.4 20:56:24 10° NW 21:00:07 20° W 21:00:07 20° W
